SCP
0 0 0 0 0 0 0 0 -0 -0 -0 -0 -0 -0 0 -0 -0 -0 -0 -0 -0 -0 -0 -0 -0 -0 -0 -0 -0 -0 -0 -0 -0 -0 -0 -0 -0 -0 -0 -0 -0 0 -0
0 0 0 0 0 0 0 0 0 -0 0 -0 -0 0 0 -0 -0 -0 -0 -0 -0 -0 -0 -0 -0 -0 -0 -0 -0 -0 -0 -0 -0 -0 -0 -0 -0 -0 -0 -0 -0 -0 -0
0 0 0 0 0 0 0 0 0 0 0 0 0 -0 0 0 -0 -0 -0 -0 -0 -0 -0 -0 -0 -0 -0 -0 -0 -0 -0 -0 -0 -0 -0 0 -0 -0 -0 -0 -0 -0 -0
0 0 0 0 0 0 0 0 0 0 0 -0 0 -0 -0 -0 -0 -0 -0 -0 -0 -0 -0 -0 -0 -0 -0 -0 -0 -0 -0 -0 -0 -0 0 0 0 -0 -0 -0 -0 0 0
0 0 0 0 0 0 0 0 0 0 0 -0 0 -0 -0 -0 -0 -0 -0 -0 -0 -0 -0 -0 -0 -0 -0 -0 -0 -0 -0 -0 -0 0 0 0 -0 0 -0 -0 0 0 0
0 0 0 -0 -0 -0 0 0 0 0 0 -0 0 -0 -0 -0 -0 -0 -0 -0 -0 -0 -0 -0 -0 -0 -0 -0 -0 -0 -0 -0 0 0 0 0 0 0 0 0 0 0 0
-0 0 0 -0 -0 -0 -0 0 0 0 -0 -0 -0 -0 -0 -0 -0 -0 -0 -0 -0 -0 -0 -0 -0 -0 -0 -0 -0 -0 -0 0 0 0 0 0 0 0 0 0 0 0 0
-0 -0 0 -0 -0 -0 -0 -0 0 -0 -0 -0 -0 -0 -0 -0 -0 -0 -0 -0 -0 -0 -0 -0 -0 -0 -0 -0 -0 0 0 0 0 0 0 0 0 0 0 0 0 0 0
-0 -0 0 0 0 -0 -0 -0 -0 -0 -0 -0 -0 -0 -0 -0 -0 -0 -0 -0 -0 -0 -0 -0 -0 -0 0 0 0 0 0 0 0 0 0 0 0 0 0 0 0 0 0
-0 -0 -0 0 0 0 0 -0 -0 -0 -0 -0 -0 -0 -0 -0 -0 -0 -0 -0 -0 0 -0 -0 -0 -0 0 0 0 0 0 0 0 0 0 0 0 0 0 0 0 0 0
-0 -0 -0 0 0 0 0 0 -0 -0 -0 -0 -0 -0 -0 0 0 0 0 -0 -0 0 0 0 -0 0 0 0 0 0 0 0 0 0 0 0 0 0 0 0 0 0 0
-0 -0 -0 -0 -0 -0 0 0 0 0 0 0 0 0 0 0 0 0 0 -0 0 0 0 0 0 0 0 0 0 0 0 0 0 0 0 0 0 0 0 0 0 0 0
-0 -0 -0 -0 -0 -0 -0 0 0 0 0 0 0 0 0 0 0 0 0 0 0 0 0 0 0 0 0 0 0 0 0 0 0 0 0 0 0 0 0 0 0 0 0
-0 -0 -0 -0 -0 -0 -0 -0 -0 -0 0 0 0 -0 0 0 0 0 0 0 0 0 0 0 0 0 0 0 0 0 0 0 0 0 0 0 0 0 0 0 0 0 0
-0 -0 -0 -0 -0 -0 -0 -0 -0 0 0 0 0 0 0 0 0 0 0 0 0 0 0 0 0 0 0 0 0 0 0 0 0 0 0 0 0 0 0 0 0 0 0
-0 -0 -0 -0 -0 -0 -0 -0 0 0 0 0 0 0 0 0 0 0 0 0 0 0 0 0 0 0 0 0 0 0 0 0 0 0 0 0 0 0 0 0 0 0 0
0 -0 -0 -0 -0 -0 -0 -0 0 0 0 0 0 0 0 0 0 0 0 0 0 0 0 0 0 0 0 0 0 0 0 0 0 0 0 0 0 0 0 0 0 0 0
0 0 0 -0 -0 -0 -0 0 0 0 0 0 0 0 0 0 0 0 0 0 0 0 0 0 0 0 0 0 0 0 0 0 0 0 0 0 0 0 0 0 0 0 0
0 0 0 0 0 0 0 0 0 0 0 0 0 0 0 0 0 0 0 0 0 0 0 0 0 0 0 0 0 0 0 0 0 0 0 0 0 0 0 0 0 0 0
0 0 0 0 0 0 0 0 0 0 0 0 0 0 0 0 0 0 0 0 0 0 0 0 0 0 0 0 0 0 0 0 0 0 0 0 0 0 0 0 0 0 0
0 0 0 0 0 0 0 0 0 0 0 0 0 0 0 0 0 0 0 0 0 0 0 0 0 0 0 0 0 0 0 0 0 0 0 0 0 0 0 0 0 0 0
0 0 0 0 0 0 0 0 0 0 0 0 0 0 0 0 0 0 0 0 0 0 0 0 0 0 0 0 0 0 0 0 0 0 0 0 0 0 0 0 0 0 0
0 0 0 0 0 0 0 0 0 0 0 0 0 0 0 0 0 0 0 0 0 0 0 0 0 0 0 0 0 0 0 0 0 0 0 0 0 0 0 0 0 0 0
0 0 0 0 0 0 0 0 0 0 0 0 0 0 0 0 0 0 0 0 0 0 0 0 0 0 0 0 0 0 0 0 0 0 0 0 0 0 0 0 0 0 0
0 0 0 0 0 0 0 0 0 0 0 0 0 0 0 0 0 0 0 0 0 0 0 0 0 0 0 0 0 0 0 0 0 0 0 0 0 0 0 0 0 0 0
0 0 0 0 0 0 0 0 0 0 0 0 0 0 0 0 0 0 0 0 0 0 0 0 0 0 0 0 0 0 0 0 0 0 0 0 0 0 0 0 0 0 0
Wind_Speed_500mb
23 16 16 21 18 16 19 22 27 27 23 20 22 27 29 29 27 26 26 24 19 27 31 30 31 30 25 25 25 25 26 26 26 27 28 25 22 21 21 19 19 18 16
27 23 21 23 19 20 22 24 26 31 20 21 24 24 30 29 28 25 24 18 19 26 28 22 23 22 22 23 25 26 26 28 24 23 23 27 23 21 22 19 15 13 13
28 26 26 25 19 20 23 24 25 27 24 25 26 26 26 25 22 20 19 24 24 19 26 24 23 24 26 28 28 28 30 28 31 25 26 29 27 24 22 22 22 26 36
27 27 28 25 22 21 23 22 25 23 24 26 29 27 26 24 20 17 16 15 30 25 25 23 22 23 25 26 25 24 24 23 26 21 20 20 22 22 22 21 26 29 28
31 29 29 26 22 21 21 21 23 22 21 23 27 26 28 25 22 20 22 26 27 29 27 23 23 26 25 26 26 23 19 18 16 15 17 22 24 21 20 22 30 33 29
35 31 29 27 24 21 20 19 20 22 18 22 28 25 27 24 28 28 25 27 26 27 24 22 22 19 19 18 19 20 21 21 17 16 15 15 17 20 25 23 24 19 16
37 34 31 29 25 22 19 18 18 17 17 19 20 23 23 26 26 23 18 23 23 23 23 20 16 15 15 18 23 24 26 25 21 20 22 28 26 19 16 19 17 10 5
36 36 33 30 27 23 20 18 17 17 15 15 16 17 15 17 17 14 15 18 20 20 18 16 14 15 17 20 23 24 23 23 21 22 25 24 16 18 19 18 13 6 12
36 37 35 32 29 25 21 18 15 14 14 13 12 12 10 12 14 13 13 13 17 17 14 13 11 13 16 19 21 23 24 23 22 21 21 21 11 10 20 12 13 15 14
38 37 37 35 33 29 25 21 17 14 13 12 10 8 8 8 7 9 10 10 14 13 12 10 8 11 14 17 20 23 25 24 23 22 22 22 21 20 14 7 10 8 7
41 41 39 37 35 33 28 23 20 17 13 11 9 8 7 6 5 5 8 8 9 9 9 7 6 9 10 12 16 21 24 22 22 22 22 23 18 14 13 13 13 13 10
45 46 42 40 37 36 32 27 23 20 17 14 10 8 7 6 7 8 7 7 8 8 7 7 6 5 6 9 13 16 18 22 20 19 19 20 20 17 16 15 12 10 12
41 41 44 41 39 38 34 31 27 23 21 17 13 10 8 7 7 8 8 8 8 7 6 7 5 4 4 6 9 11 13 15 16 17 17 17 19 18 17 17 15 12 9
46 42 39 45 43 41 37 34 30 28 25 21 17 14 10 8 7 8 10 11 11 9 7 7 5 4 3 3 5 7 9 11 12 15 18 18 17 19 18 19 18 14 12
50 43 43 43 46 44 42 40 37 34 30 26 24 20 17 13 10 10 11 13 13 12 10 10 8 8 5 3 2 3 7 11 13 14 16 18 18 19 21 22 22 21 17
55 52 44 46 46 44 44 42 41 39 35 34 31 27 24 20 17 14 14 14 15 16 15 16 13 11 10 8 8 11 13 14 16 20 21 23 23 24 26 28 26 25 22
59 54 51 47 48 50 45 42 42 40 39 40 37 34 31 28 25 21 18 18 16 19 21 20 19 17 15 14 15 17 20 23 26 27 29 30 31 32 31 30 31 28 25
64 64 57 53 51 53 51 48 44 42 40 42 41 40 37 33 30 29 26 22 21 22 23 24 24 22 21 21 22 25 27 29 32 33 36 37 36 38 39 38 37 36 36
61 66 63 61 60 54 55 53 51 49 48 44 43 41 41 37 35 35 33 28 28 28 27 26 27 26 26 27 30 33 36 38 38 37 40 42 43 46 43 43 44 44 43
61 65 63 63 63 63 56 55 59 56 56 51 48 47 44 45 40 40 38 36 36 36 34 33 30 31 33 37 42 45 46 43 43 42 46 39 39 40 42 44 45 45 48
56 60 62 63 63 65 63 62 62 65 62 61 57 52 48 46 45 43 43 42 43 44 40 39 39 39 41 43 49 49 53 47 50 51 44 32 35 35 40 40 42 43 44
60 60 59 61 60 59 60 61 58 56 66 66 63 61 55 52 51 51 47 46 46 48 48 46 46 46 48 49 52 54 56 57 53 36 37 43 43 38 39 35 36 37 42
68 62 62 61 61 58 57 55 59 57 55 61 68 67 65 58 56 55 53 50 48 51 55 51 53 54 54 55 56 51 27 22 53 56 48 53 42 48 48 43 41 45 47
59 57 56 56 64 65 62 63 63 57 60 54 54 50 52 52 56 61 59 56 55 53 53 53 56 59 59 60 60 59 65 64 53 40 54 56 49 48 40 45 52 52 47
52 56 58 55 55 64 64 67 62 62 58 51 50 48 45 43 45 53 55 58 62 62 60 58 54 56 60 63 53 53 63 63 54 56 61 58 51 47 44 50 50 42 35
55 53 61 63 58 60 64 68 70 69 66 62 60 53 48 44 46 45 47 48 54 59 57 69 63 62 66 58 55 56 59 54 58 55 53 56 52 54 59 51 37 33 33
Wind_Direction_500mb
159 156 143 132 107 84 97 108 102 96 93 96 111 118 123 113 110 107 98 85 75 92 91 91 91 90 85 79 78 78 79 84 89 88 84 74 69 76 74 64 68 70 55
146 153 142 128 112 98 106 110 108 106 91 83 93 117 129 130 120 113 102 103 100 103 103 102 89 83 79 74 71 74 79 79 77 87 82 72 60 62 57 42 40 32 28
154 153 147 137 122 105 111 113 114 112 103 93 95 107 121 129 125 118 116 107 104 114 95 85 87 81 76 71 67 70 73 74 72 72 72 73 61 44 42 38 41 49 71
160 157 152 140 132 116 114 112 111 113 102 94 102 99 114 129 134 130 124 120 100 97 100 84 87 86 82 76 70 62 66 77 77 70 62 50 47 43 38 40 43 43 62
165 160 156 144 140 125 118 114 109 113 107 100 105 96 95 104 111 112 109 98 96 101 98 91 93 89 88 77 72 64 60 77 74 60 54 50 32 30 31 38 57 62 74
166 163 161 152 149 136 126 115 106 111 109 98 108 100 99 94 92 95 98 95 99 105 105 97 92 85 76 65 49 53 49 53 54 58 49 53 49 27 45 49 76 82 88
169 168 167 160 157 149 138 129 119 112 102 100 105 114 111 110 111 122 104 104 104 100 95 92 85 73 64 51 49 56 54 51 56 54 66 69 66 59 60 66 78 73 58
176 172 173 168 166 162 156 145 132 122 113 107 105 103 107 116 124 122 100 92 97 100 95 84 72 66 58 59 56 52 48 48 55 59 73 76 47 35 56 59 39 38 43
186 180 178 176 174 172 168 158 147 133 126 118 111 111 110 104 109 111 105 93 103 109 99 85 73 69 66 61 53 51 50 54 61 62 62 70 49 36 64 49 49 34 45
190 189 186 184 183 182 180 173 167 155 145 136 128 124 126 115 119 112 104 122 119 120 112 91 69 65 67 57 51 49 51 58 59 55 49 51 54 52 67 45 20 355 40
194 195 194 195 189 191 189 187 181 176 168 163 154 144 148 145 140 137 115 130 138 131 121 104 73 65 63 57 61 59 56 63 60 52 45 44 48 42 31 25 14 14 354
195 196 200 201 200 197 197 197 196 191 188 186 182 171 174 178 172 163 145 149 170 161 139 120 107 93 69 61 57 56 54 56 53 44 37 34 32 31 26 18 10 360 359
201 204 205 207 209 208 207 207 204 205 204 205 203 194 194 200 194 184 176 179 185 182 161 143 131 135 88 57 57 57 49 41 37 30 20 16 16 16 13 10 7 5 349
208 213 213 210 214 217 215 216 217 216 216 220 222 218 213 222 225 211 203 201 201 205 194 183 183 174 153 68 51 36 27 18 13 10 7 1 358 357 353 353 351 345 328
216 218 220 218 219 220 222 222 221 223 225 227 231 230 229 229 237 234 231 222 219 223 219 218 214 210 220 262 317 336 336 335 340 346 350 350 342 335 331 332 332 326 312
219 226 227 226 225 227 228 229 230 229 228 231 234 238 236 236 238 243 242 243 239 236 237 233 236 238 241 262 281 299 307 314 320 324 326 326 324 323 322 317 311 314 298
222 229 234 234 226 225 231 231 235 233 235 236 236 236 238 239 242 245 245 247 247 243 244 247 245 245 258 269 279 289 297 305 311 315 317 315 314 313 306 301 297 293 287
226 228 237 239 234 229 227 231 236 239 242 241 241 244 242 242 246 249 251 251 248 249 250 249 249 254 257 266 276 285 292 295 301 307 310 309 310 305 300 296 290 288 284
230 231 236 239 241 235 232 233 235 237 240 242 244 246 246 247 249 250 250 253 253 253 255 255 254 258 263 271 280 286 291 296 295 298 302 304 303 300 301 297 292 287 289
235 237 239 241 241 242 241 235 239 241 243 244 244 245 249 252 257 260 258 254 254 254 254 257 258 262 269 277 285 290 291 293 296 307 305 301 305 304 302 300 293 288 287
233 233 235 236 237 237 235 235 234 238 243 246 247 248 251 254 255 262 259 257 254 256 259 261 264 266 271 276 282 289 292 294 303 308 306 302 310 307 306 301 302 295 292
238 237 237 236 236 236 238 239 245 243 240 243 248 250 251 251 254 253 257 256 258 259 260 262 265 268 270 272 277 285 294 297 297 307 304 308 309 309 309 305 304 299 297
239 239 241 242 240 238 241 243 244 246 241 241 243 244 248 251 253 255 257 260 263 260 260 262 262 264 269 273 275 277 280 278 302 303 304 303 312 315 311 303 306 308 304
242 243 246 247 245 243 240 242 245 252 254 258 259 260 256 256 256 258 259 261 263 264 263 265 267 268 269 272 276 276 284 285 280 288 297 300 301 303 300 302 306 304 303
237 239 243 246 248 245 242 243 246 251 258 263 265 264 265 260 262 257 263 265 263 262 263 263 264 268 269 271 280 281 280 285 280 279 284 298 291 300 302 308 300 304 300
238 241 238 238 241 244 243 243 246 249 254 257 261 260 263 263 265 266 267 266 268 268 267 274 262 270 272 268 274 278 284 277 289 284 288 293 297 301 305 306 307 310 305
Wind_Speed_850mb
23 16 16 21 18 16 19 22 27 27 23 20 22 27 29 29 27 26 26 24 19 27 31 30 31 30 25 25 25 25 26 26 26 27 28 25 22 21 21 19 19 18 16
27 23 21 23 19 20 22 24 26 31 20 21 24 24 30 29 28 25 24 18 19 26 28 22 23 22 22 23 25 26 26 28 24 23 23 27 23 21 22 19 15 13 13
28 26 26 25 19 20 23 24 25 27 24 25 26 26 26 25 22 20 19 24 24 19 26 24 23 24 26 28 28 28 30 28 31 25 26 29 27 24 22 22 22 26 36
27 27 28 25 22 21 23 22 25 23 24 26 29 27 26 24 20 17 16 15 30 25 25 23 22 23 25 26 25 24 24 23 26 21 20 20 22 22 22 21 26 29 28
31 29 29 26 22 21 21 21 23 22 21 23 27 26 28 25 22 20 22 26 27 29 27 23 23 26 25 26 26 23 19 18 16 15 17 22 24 21 20 22 30 33 29
35 31 29 27 24 21 20 19 20 22 18 22 28 25 27 24 28 28 25 27 26 27 24 22 22 19 19 18 19 20 21 21 17 16 15 15 17 20 25 23 24 19 16
37 34 31 29 25 22 19 18 18 17 17 19 20 23 23 26 26 23 18 23 23 23 23 20 16 15 15 18 23 24 26 25 21 20 22 28 26 19 16 19 17 10 5
36 36 33 30 27 23 20 18 17 17 15 15 16 17 15 17 17 14 15 18 20 20 18 16 14 15 17 20 23 24 23 23 21 22 25 24 16 18 19 18 13 6 12
36 37 35 32 29 25 21 18 15 14 14 13 12 12 10 12 14 13 13 13 17 17 14 13 11 13 16 19 21 23 24 23 22 21 21 21 11 10 20 12 13 15 14
38 37 37 35 33 29 25 21 17 14 13 12 10 8 8 8 7 9 10 10 14 13 12 10 8 11 14 17 20 23 25 24 23 22 22 22 21 20 14 7 10 8 7
41 41 39 37 35 33 28 23 20 17 13 11 9 8 7 6 5 5 8 8 9 9 9 7 6 9 10 12 16 21 24 22 22 22 22 23 18 14 13 13 13 13 10
45 46 42 40 37 36 32 27 23 20 17 14 10 8 7 6 7 8 7 7 8 8 7 7 6 5 6 9 13 16 18 22 20 19 19 20 20 17 16 15 12 10 12
41 41 44 41 39 38 34 31 27 23 21 17 13 10 8 7 7 8 8 8 8 7 6 7 5 4 4 6 9 11 13 15 16 17 17 17 19 18 17 17 15 12 9
46 42 39 45 43 41 37 34 30 28 25 21 17 14 10 8 7 8 10 11 11 9 7 7 5 4 3 3 5 7 9 11 12 15 18 18 17 19 18 19 18 14 12
50 43 43 43 46 44 42 40 37 34 30 26 24 20 17 13 10 10 11 13 13 12 10 10 8 8 5 3 2 3 7 11 13 14 16 18 18 19 21 22 22 21 17
55 52 44 46 46 44 44 42 41 39 35 34 31 27 24 20 17 14 14 14 15 16 15 16 13 11 10 8 8 11 13 14 16 20 21 23 23 24 26 28 26 25 22
59 54 51 47 48 50 45 42 42 40 39 40 37 34 31 28 25 21 18 18 16 19 21 20 19 17 15 14 15 17 20 23 26 27 29 30 31 32 31 30 31 28 25
64 64 57 53 51 53 51 48 44 42 40 42 41 40 37 33 30 29 26 22 21 22 23 24 24 22 21 21 22 25 27 29 32 33 36 37 36 38 39 38 37 36 36
61 66 63 61 60 54 55 53 51 49 48 44 43 41 41 37 35 35 33 28 28 28 27 26 27 26 26 27 30 33 36 38 38 37 40 42 43 46 43 43 44 44 43
61 65 63 63 63 63 56 55 59 56 56 51 48 47 44 45 40 40 38 36 36 36 34 33 30 31 33 37 42 45 46 43 43 42 46 39 39 40 42 44 45 45 48
56 60 62 63 63 65 63 62 62 65 62 61 57 52 48 46 45 43 43 42 43 44 40 39 39 39 41 43 49 49 53 47 50 51 44 32 35 35 40 40 42 43 44
60 60 59 61 60 59 60 61 58 56 66 66 63 61 55 52 51 51 47 46 46 48 48 46 46 46 48 49 52 54 56 57 53 36 37 43 43 38 39 35 36 37 42
68 62 62 61 61 58 57 55 59 57 55 61 68 67 65 58 56 55 53 50 48 51 55 51 53 54 54 55 56 51 27 22 53 56 48 53 42 48 48 43 41 45 47
59 57 56 56 64 65 62 63 63 57 60 54 54 50 52 52 56 61 59 56 55 53 53 53 56 59 59 60 60 59 65 64 53 40 54 56 49 48 40 45 52 52 47
52 56 58 55 55 64 64 67 62 62 58 51 50 48 45 43 45 53 55 58 62 62 60 58 54 56 60 63 53 53 63 63 54 56 61 58 51 47 44 50 50 42 35
55 53 61 63 58 60 64 68 70 69 66 62 60 53 48 44 46 45 47 48 54 59 57 69 63 62 66 58 55 56 59 54 58 55 53 56 52 54 59 51 37 33 33
Wind_Direction_850mb
159 156 143 132 107 84 97 108 102 96 93 96 111 118 123 113 110 107 98 85 75 92 91 91 91 90 85 79 78 78 79 84 89 88 84 74 69 76 74 64 68 70 55
146 153 142 128 112 98 106 110 108 106 91 83 93 117 129 130 120 113 102 103 100 103 103 102 89 83 79 74 71 74 79 79 77 87 82 72 60 62 57 42 40 32 28
154 153 147 137 122 105 111 113 114 112 103 93 95 107 121 129 125 118 116 107 104 114 95 85 87 81 76 71 67 70 73 74 72 72 72 73 61 44 42 38 41 49 71
160 157 152 140 132 116 114 112 111 113 102 94 102 99 114 129 134 130 124 120 100 97 100 84 87 86 82 76 70 62 66 77 77 70 62 50 47 43 38 40 43 43 62
165 160 156 144 140 125 118 114 109 113 107 100 105 96 95 104 111 112 109 98 96 101 98 91 93 89 88 77 72 64 60 77 74 60 54 50 32 30 31 38 57 62 74
166 163 161 152 149 136 126 115 106 111 109 98 108 100 99 94 92 95 98 95 99 105 105 97 92 85 76 65 49 53 49 53 54 58 49 53 49 27 45 49 76 82 88
169 168 167 160 157 149 138 129 119 112 102 100 105 114 111 110 111 122 104 104 104 100 95 92 85 73 64 51 49 56 54 51 56 54 66 69 66 59 60 66 78 73 58
176 172 173 168 166 162 156 145 132 122 113 107 105 103 107 116 124 122 100 92 97 100 95 84 72 66 58 59 56 52 48 48 55 59 73 76 47 35 56 59 39 38 43
186 180 178 176 174 172 168 158 147 133 126 118 111 111 110 104 109 111 105 93 103 109 99 85 73 69 66 61 53 51 50 54 61 62 62 70 49 36 64 49 49 34 45
190 189 186 184 183 182 180 173 167 155 145 136 128 124 126 115 119 112 104 122 119 120 112 91 69 65 67 57 51 49 51 58 59 55 49 51 54 52 67 45 20 355 40
194 195 194 195 189 191 189 187 181 176 168 163 154 144 148 145 140 137 115 130 138 131 121 104 73 65 63 57 61 59 56 63 60 52 45 44 48 42 31 25 14 14 354
195 196 200 201 200 197 197 197 196 191 188 186 182 171 174 178 172 163 145 149 170 161 139 120 107 93 69 61 57 56 54 56 53 44 37 34 32 31 26 18 10 360 359
201 204 205 207 209 208 207 207 204 205 204 205 203 194 194 200 194 184 176 179 185 182 161 143 131 135 88 57 57 57 49 41 37 30 20 16 16 16 13 10 7 5 349
208 213 213 210 214 217 215 216 217 216 216 220 222 218 213 222 225 211 203 201 201 205 194 183 183 174 153 68 51 36 27 18 13 10 7 1 358 357 353 353 351 345 328
216 218 220 218 219 220 222 222 221 223 225 227 231 230 229 229 237 234 231 222 219 223 219 218 214 210 220 262 317 336 336 335 340 346 350 350 342 335 331 332 332 326 312
219 226 227 226 225 227 228 229 230 229 228 231 234 238 236 236 238 243 242 243 239 236 237 233 236 238 241 262 281 299 307 314 320 324 326 326 324 323 322 317 311 314 298
222 229 234 234 226 225 231 231 235 233 235 236 236 236 238 239 242 245 245 247 247 243 244 247 245 245 258 269 279 289 297 305 311 315 317 315 314 313 306 301 297 293 287
226 228 237 239 234 229 227 231 236 239 242 241 241 244 242 242 246 249 251 251 248 249 250 249 249 254 257 266 276 285 292 295 301 307 310 309 310 305 300 296 290 288 284
230 231 236 239 241 235 232 233 235 237 240 242 244 246 246 247 249 250 250 253 253 253 255 255 254 258 263 271 280 286 291 296 295 298 302 304 303 300 301 297 292 287 289
235 237 239 241 241 242 241 235 239 241 243 244 244 245 249 252 257 260 258 254 254 254 254 257 258 262 269 277 285 290 291 293 296 307 305 301 305 304 302 300 293 288 287
233 233 235 236 237 237 235 235 234 238 243 246 247 248 251 254 255 262 259 257 254 256 259 261 264 266 271 276 282 289 292 294 303 308 306 302 310 307 306 301 302 295 292
238 237 237 236 236 236 238 239 245 243 240 243 248 250 251 251 254 253 257 256 258 259 260 262 265 268 270 272 277 285 294 297 297 307 304 308 309 309 309 305 304 299 297
239 239 241 242 240 238 241 243 244 246 241 241 243 244 248 251 253 255 257 260 263 260 260 262 262 264 269 273 275 277 280 278 302 303 304 303 312 315 311 303 306 308 304
242 243 246 247 245 243 240 242 245 252 254 258 259 260 256 256 256 258 259 261 263 264 263 265 267 268 269 272 276 276 284 285 280 288 297 300 301 303 300 302 306 304 303
237 239 243 246 248 245 242 243 246 251 258 263 265 264 265 260 262 257 263 265 263 262 263 263 264 268 269 271 280 281 280 285 280 279 284 298 291 300 302 308 300 304 300
238 241 238 238 241 244 243 243 246 249 254 257 261 260 263 263 265 266 267 266 268 268 267 274 262 270 272 268 274 278 284 277 289 284 288 293 297 301 305 306 307 310 305